2023/01/26 00:00:00,84.1,-5.7
2023/01/26 00:10:00,84.1,-5.5
2023/01/26 00:20:00,84.1,-5.1
2023/01/26 00:30:00,84.2,-5.1
2023/01/26 00:40:00,84.0,-5.1
2023/01/26 00:50:00,83.7,-5.1
2023/01/26 01:00:00,83.5,-5.7
2023/01/26 01:10:00,83.2,-5.6
2023/01/26 01:20:00,83.2,-5.8
2023/01/26 01:30:00,82.9,-5.4
2023/01/26 01:40:00,82.9,-5.9
2023/01/26 01:50:00,82.8,-5.7
2023/01/26 02:00:00,82.8,-5.8
2023/01/26 02:10:00,82.7,-5.6
2023/01/26 02:20:00,82.7,-5.6
2023/01/26 02:30:00,82.4,-5.9
2023/01/26 02:40:00,82.4,-6.0
2023/01/26 02:50:00,82.3,-6.5
2023/01/26 03:00:00,82.2,-5.5
2023/01/26 03:10:00,82.0,-5.6
2023/01/26 03:20:00,82.0,-5.5
2023/01/26 03:30:00,82.0,-5.5
2023/01/26 03:40:00,81.7,-5.5
2023/01/26 03:50:00,81.5,-5.1
2023/01/26 04:00:00,81.2,-5.3
2023/01/26 04:10:00,81.3,-5.1
2023/01/26 04:20:00,81.3,-4.9
2023/01/26 04:30:00,81.5,-4.8
2023/01/26 04:40:00,81.3,-4.4
2023/01/26 04:50:00,81.1,-4.6
2023/01/26 05:00:00,81.0,-4.8
2023/01/26 05:10:00,80.9,-5.1
2023/01/26 05:20:00,80.8,-5.0
2023/01/26 05:30:00,80.8,-5.2
2023/01/26 05:40:00,80.6,-5.2
2023/01/26 05:50:00,80.4,-5.1
2023/01/26 06:00:00,80.1,-4.8
2023/01/26 06:10:00,80.0,-4.8
2023/01/26 06:20:00,80.0,-4.6
2023/01/26 06:30:00,80.0,-4.4
2023/01/26 06:40:00,79.8,-4.6
2023/01/26 06:50:00,79.9,-4.5
2023/01/26 07:00:00,79.8,-4.3
2023/01/26 07:10:00,79.7,-4.6
2023/01/26 07:20:00,79.8,-4.4
2023/01/26 07:30:00,80.2,-4.5
2023/01/26 07:40:00,80.1,-4.4
2023/01/26 07:50:00,80.0,-4.4
2023/01/26 08:00:00,79.7,-4.2
2023/01/26 08:10:00,79.4,-4.0
2023/01/26 08:20:00,79.3,-4.0
2023/01/26 08:30:00,79.2,-3.4
2023/01/26 08:40:00,79.0,-3.2
2023/01/26 08:50:00,79.1,-3.2
2023/01/26 09:00:00,79.1,-3.1
2023/01/26 09:10:00,79.0,-2.9
2023/01/26 09:20:00,78.9,-2.7
2023/01/26 09:30:00,78.8,-2.2
2023/01/26 09:40:00,78.8,-2.3
2023/01/26 09:50:00,78.8,-2.1
2023/01/26 10:00:00,78.5,-1.7
2023/01/26 10:10:00,78.4,-1.5
2023/01/26 10:20:00,78.4,-1.3
2023/01/26 10:30:00,78.4,-1.2
2023/01/26 10:40:00,78.3,-1.4
2023/01/26 10:50:00,78.6, 0.1
2023/01/26 11:00:00,78.7, 0.8
2023/01/26 11:10:00,78.6, 0.5
2023/01/26 11:20:00,78.6, 1.7
2023/01/26 11:30:00,78.4, 1.7
2023/01/26 11:40:00,78.1, 1.5
2023/01/26 11:50:00,78.2, 1.4
2023/01/26 12:00:00,77.9, 0.5
2023/01/26 12:10:00,77.9, 0.7
2023/01/26 12:20:00,77.9, 1.3
2023/01/26 12:30:00,77.8, 1.1
2023/01/26 12:40:00,77.9, 1.0
2023/01/26 12:50:00,78.0, 1.1
2023/01/26 13:00:00,78.0, 1.6
2023/01/26 13:10:00,77.9, 1.8
2023/01/26 13:20:00,77.8, 0.7
2023/01/26 13:30:00,77.7, 0.6
2023/01/26 13:40:00,77.8, 0.7
2023/01/26 13:50:00,77.7, 0.0
2023/01/26 14:00:00,77.7, 0.1
2023/01/26 14:10:00,77.7, 1.2
2023/01/26 14:20:00,77.7, 1.6
2023/01/26 14:30:00,77.8, 2.2
2023/01/26 14:40:00,77.6, 1.1
2023/01/26 14:50:00,77.2,-0.4
2023/01/26 15:00:00,77.1,-0.5
2023/01/26 15:10:00,77.1,-0.7
2023/01/26 15:20:00,77.1,-0.6
2023/01/26 15:30:00,77.1, 0.0
2023/01/26 15:40:00,76.9, 0.1
2023/01/26 15:50:00,76.7, 0.0
2023/01/26 16:00:00,76.5, 0.3
2023/01/26 16:10:00,76.4, 0.4
2023/01/26 16:20:00,76.3,-0.3
2023/01/26 16:30:00,76.3, 0.7
2023/01/26 16:40:00,76.1,-0.2
2023/01/26 16:50:00,75.9,-0.6
2023/01/26 17:00:00,75.8,-0.6
2023/01/26 17:10:00,75.7,-1.2
2023/01/26 17:20:00,75.6,-1.4
2023/01/26 17:30:00,75.7,-1.4
2023/01/26 17:40:00,75.7,-1.8
2023/01/26 17:50:00,75.6,-1.7
2023/01/26 18:00:00,75.5,-1.9
2023/01/26 18:10:00,75.4,-2.0
2023/01/26 18:20:00,75.1,-2.0
2023/01/26 18:30:00,74.9,-2.2
2023/01/26 18:40:00,74.8,-1.8
2023/01/26 18:50:00,74.8,-2.2
2023/01/26 19:00:00,74.7,-2.3
2023/01/26 19:10:00,74.7,-2.8
2023/01/26 19:20:00,74.7,-2.4
2023/01/26 19:30:00,74.6,-2.5
2023/01/26 19:40:00,74.5,-2.4
2023/01/26 19:50:00,74.2,-2.8
2023/01/26 20:00:00,74.2,-2.4
2023/01/26 20:10:00,74.1,-2.7
2023/01/26 20:20:00,74.0,-2.9
2023/01/26 20:30:00,73.8,-2.4
2023/01/26 20:40:00,73.8,-2.6
2023/01/26 20:50:00,73.7,-2.3
2023/01/26 21:00:00,73.5,-2.4
2023/01/26 21:10:00,73.5,-2.6
2023/01/26 21:20:00,73.5,-2.5
2023/01/26 21:30:00,73.3,-2.3
2023/01/26 21:40:00,73.2,-2.4
2023/01/26 21:50:00,73.3,-2.4
2023/01/26 22:00:00,73.3,-2.4
2023/01/26 22:10:00,73.1,-2.8
2023/01/26 22:20:00,73.1,-2.1
2023/01/26 22:30:00,73.1,-2.0
2023/01/26 22:40:00,73.0,-2.2
2023/01/26 22:50:00,72.8,-2.2
2023/01/26 23:00:00,72.7,-2.2
2023/01/26 23:10:00,72.6,-2.2
2023/01/26 23:20:00,72.6,-2.0
2023/01/26 23:30:00,72.5,-2.4
2023/01/26 23:40:00,72.5,-2.7
2023/01/26 23:50:00,72.5,-2.2
